Hot Springs, VA

11:57 PM EDT on March 24, 2017 (GMT -0400)
Ingalls

Weather History for KHSP - December, 2010

Change the Weather History Date:

Friday, December 31, 2010

  Actual Average Record
Temperature  
Mean Temperature 46 °F -  
Max Temperature 53 °F 33 °F 55 °F (2002)
Min Temperature 39 °F 20 °F 6 °F (2000)
Degree Days  
Heating Degree Days 19    
Moisture  
Dew Point 40 °F    
Average Humidity 72    
Maximum Humidity 87    
Minimum Humidity 53    
Precipitation  
Precipitation 0.00 in - - ()
Sea Level Pressure  
Sea Level Pressure 30.19 in    
Wind  
Wind Speed 10 mph (WSW)    
Max Wind Speed 15 mph    
Max Gust Speed 17 mph    
Visibility 10 miles    
Events      
Averages and records for this station are not official NWS values.
T = Trace of Precipitation, MM = Missing Value Source: NWS Daily Summary

Daily Weather History Graph

Daily Weather History Graph

Search for Another Location

Airport or City:

Trip Planner

Search our weather history database for the weather conditions in past years. The results will help you decide how hot, cold, wet, or windy it might be!

Date:

Astronomy

Dec. 31, 2010 Rise Set
Actual Time 7:35 AM EST 5:09 PM EST
Civil Twilight 7:05 AM EST 5:39 PM EST
Nautical Twilight 6:32 AM EST 6:12 PM EST
Astronomical Twilight 6:00 AM EST 6:44 PM EST
Moon 4:01 AM EST (12/31) 1:56 PM EST (12/31)
Length of Visible Light 10h 33m
Length of Day
9h 34m
Waning Crescent, 15% of the Moon is Illuminated
Dec 31
Waning Crescent
Jan 4
New
Jan 12
First Quarter
Jan 19
Full
Jan 26
Last Quarter

Hourly Weather History & Observations

Time (EST) Temp. Windchill Dew Point Humidity Pressure Visibility Wind Dir Wind Speed Gust Speed Precip Events Conditions
12:00 AM 42.8 °F 38.0 °F 32.0 °F 66% 30.14 in 10.0 mi SW 8.1 mph - N/A   Clear
12:20 AM 39.2 °F 33.0 °F 32.0 °F 75% 30.14 in 10.0 mi WSW 9.2 mph - N/A   Scattered Clouds
12:40 AM 44.6 °F 39.2 °F 32.0 °F 61% 30.13 in 10.0 mi SW 10.4 mph - N/A   Overcast
1:00 AM 46.4 °F 41.9 °F 32.0 °F 57% 30.13 in 10.0 mi SW 9.2 mph - N/A   Overcast
1:20 AM 44.6 °F 39.2 °F 32.0 °F 61% 30.13 in 10.0 mi SW 10.4 mph - N/A   Overcast
1:40 AM 46.4 °F 41.9 °F 32.0 °F 57% 30.13 in 10.0 mi SW 9.2 mph - N/A   Overcast
2:00 AM 46.4 °F 41.1 °F 30.2 °F 53% 30.13 in 10.0 mi WSW 11.5 mph - N/A   Overcast
2:20 AM 44.6 °F 38.8 °F 32.0 °F 61% 30.14 in 10.0 mi SW 11.5 mph - N/A   Overcast
2:40 AM 44.6 °F 38.8 °F 32.0 °F 61% 30.14 in 10.0 mi SW 11.5 mph - N/A   Overcast
3:00 AM 44.6 °F 38.8 °F 32.0 °F 61% 30.15 in 10.0 mi SW 11.5 mph - N/A   Mostly Cloudy
3:40 AM 44.6 °F 38.4 °F 32.0 °F 61% 30.15 in 10.0 mi WSW 12.7 mph - N/A   Mostly Cloudy
4:20 AM 42.8 °F 35.8 °F 30.2 °F 61% 30.15 in 10.0 mi WSW 13.8 mph - N/A   Scattered Clouds
4:40 AM 42.8 °F 35.4 °F 32.0 °F 66% 30.15 in 10.0 mi WSW 15.0 mph - N/A   Clear
5:00 AM 42.8 °F 35.8 °F 33.8 °F 70% 30.16 in 10.0 mi WSW 13.8 mph - N/A   Scattered Clouds
5:20 AM 42.8 °F 36.2 °F 33.8 °F 70% 30.16 in 10.0 mi West 12.7 mph - N/A   Clear
5:40 AM 42.8 °F 36.2 °F 33.8 °F 70% 30.16 in 10.0 mi West 12.7 mph - N/A   Scattered Clouds
6:00 AM 42.8 °F 36.2 °F 35.6 °F 76% 30.17 in 10.0 mi West 12.7 mph - N/A   Scattered Clouds
6:20 AM 44.6 °F 38.4 °F 35.6 °F 71% 30.17 in 10.0 mi West 12.7 mph 17.3 mph N/A   Clear
6:40 AM 42.8 °F 37.0 °F 37.4 °F 81% 30.18 in 10.0 mi West 10.4 mph - N/A   Clear
7:00 AM 42.8 °F 37.0 °F 35.6 °F 76% 30.19 in 10.0 mi West 10.4 mph - N/A   Clear
7:20 AM 42.8 °F 37.0 °F 35.6 °F 76% 30.19 in 10.0 mi West 10.4 mph - N/A   Clear
7:40 AM 42.8 °F 37.0 °F 37.4 °F 81% 30.19 in 10.0 mi WSW 10.4 mph - N/A   Scattered Clouds
8:00 AM 42.8 °F 36.6 °F 37.4 °F 81% 30.19 in 10.0 mi WSW 11.5 mph - N/A   Clear
8:20 AM 44.6 °F 39.2 °F 37.4 °F 76% 30.19 in 10.0 mi WSW 10.4 mph - N/A   Clear
8:40 AM 44.6 °F 38.4 °F 39.2 °F 81% 30.19 in 10.0 mi WSW 12.7 mph - N/A   Scattered Clouds
9:00 AM 46.4 °F 41.1 °F 41.0 °F 81% 30.19 in 10.0 mi WSW 11.5 mph - N/A   Clear
9:20 AM 48.2 °F - 44.6 °F 87% 30.20 in 10.0 mi West 12.7 mph - N/A   Clear
9:40 AM 48.2 °F - 42.8 °F 82% 30.21 in 10.0 mi WSW 9.2 mph - N/A   Clear
10:20 AM 51.8 °F - 44.6 °F 76% 30.22 in 10.0 mi WSW 9.2 mph - N/A   Clear
10:40 AM 50.0 °F - 44.6 °F 82% 30.22 in 10.0 mi WSW 9.2 mph - N/A   Clear
11:00 AM 51.8 °F - 44.6 °F 76% 30.23 in 10.0 mi West 9.2 mph - N/A   Clear
11:20 AM 50.0 °F - 42.8 °F 76% 30.23 in 10.0 mi WSW 12.7 mph - N/A   Clear
11:40 AM 51.8 °F - 44.6 °F 76% 30.23 in 10.0 mi WSW 11.5 mph - N/A   Clear
12:00 PM 51.8 °F - 42.8 °F 71% 30.23 in 10.0 mi WSW 12.7 mph - N/A   Clear
12:20 PM 51.8 °F - 42.8 °F 71% 30.22 in 10.0 mi WSW 11.5 mph - N/A   Clear
12:40 PM 53.6 °F - 42.8 °F 67% 30.22 in 10.0 mi West 11.5 mph - N/A   Clear
1:00 PM 51.8 °F - 42.8 °F 71% 30.21 in 10.0 mi West 10.4 mph - N/A   Clear
1:20 PM 53.6 °F - 42.8 °F 67% 30.21 in 10.0 mi West 12.7 mph - N/A   Clear
1:40 PM 51.8 °F - 42.8 °F 71% 30.21 in 10.0 mi West 11.5 mph - N/A   Clear
2:00 PM 51.8 °F - 42.8 °F 71% 30.21 in 10.0 mi West 11.5 mph - N/A   Clear
2:20 PM 53.6 °F - 44.6 °F 72% 30.20 in 10.0 mi West 11.5 mph - N/A   Clear
2:40 PM 51.8 °F - 44.6 °F 76% 30.20 in 10.0 mi West 9.2 mph - N/A   Clear
3:00 PM 53.6 °F - 44.6 °F 72% 30.20 in 10.0 mi WSW 9.2 mph - N/A   Clear
3:20 PM 53.6 °F - 44.6 °F 72% 30.20 in 10.0 mi West 11.5 mph - N/A   Clear
3:40 PM 53.6 °F - 44.6 °F 72% 30.20 in 10.0 mi WSW 9.2 mph - N/A   Clear
4:00 PM 51.8 °F - 44.6 °F 76% 30.20 in 10.0 mi WSW 9.2 mph - N/A   Clear
4:20 PM 51.8 °F - 44.6 °F 76% 30.21 in 10.0 mi WSW 10.4 mph - N/A   Clear
4:40 PM 48.2 °F - 42.8 °F 82% 30.20 in 10.0 mi WSW 8.1 mph - N/A   Clear
5:00 PM 50.0 °F - 44.6 °F 82% 30.20 in 10.0 mi SW 8.1 mph - N/A   Clear
5:20 PM 50.0 °F - 44.6 °F 82% 30.20 in 10.0 mi SW 5.8 mph - N/A   Clear
6:00 PM 51.8 °F - 44.6 °F 76% 30.22 in 10.0 mi SW 6.9 mph - N/A   Clear
6:20 PM 51.8 °F - 44.6 °F 76% 30.22 in 10.0 mi SW 6.9 mph - N/A   Clear
6:40 PM 51.8 °F - 44.6 °F 76% 30.22 in 10.0 mi SSW 5.8 mph - N/A   Clear
7:00 PM 50.0 °F - 42.8 °F 76% 30.23 in 10.0 mi SSW 5.8 mph - N/A   Clear
7:20 PM 51.8 °F - 44.6 °F 76% 30.22 in 10.0 mi South 5.8 mph - N/A   Clear
7:40 PM 51.8 °F - 42.8 °F 71% 30.22 in 10.0 mi SSW 8.1 mph - N/A   Clear
8:00 PM 51.8 °F - 42.8 °F 71% 30.22 in 10.0 mi SSW 8.1 mph - N/A   Clear
8:20 PM 50.0 °F - 42.8 °F 76% 30.22 in 10.0 mi SSW 5.8 mph - N/A   Clear
8:40 PM 51.8 °F - 42.8 °F 71% 30.21 in 10.0 mi South 6.9 mph - N/A   Clear
9:00 PM 51.8 °F - 42.8 °F 71% 30.20 in 10.0 mi South 6.9 mph - N/A   Clear
9:20 PM 50.0 °F - 42.8 °F 76% 30.19 in 10.0 mi South 6.9 mph - N/A   Clear
9:40 PM 50.0 °F - 42.8 °F 76% 30.20 in 10.0 mi SSW 8.1 mph - N/A   Clear
10:00 PM 50.0 °F - 42.8 °F 76% 30.20 in 10.0 mi SSW 6.9 mph - N/A   Clear
10:20 PM 51.8 °F - 42.8 °F 71% 30.19 in 10.0 mi South 9.2 mph - N/A   Clear
11:00 PM 50.0 °F - 42.8 °F 76% 30.20 in 10.0 mi SSW 5.8 mph - N/A   Clear
11:20 PM 50.0 °F - 42.8 °F 76% 30.20 in 10.0 mi South 9.2 mph - N/A   Clear
11:40 PM 50.0 °F - 42.8 °F 76% 30.20 in 10.0 mi SSW 4.6 mph - N/A   Clear